SCP
0 0 0 0 0 0 0 0 0 0 0 0 0 0 0 0 0 0 0 0 0 0 0 0 0 0 0 0 0 0 0 0 0 0 0 0 0 0 0 0 0 0 0
0 0 0 0 0 0 0 0 0 0 0 0 0 0 0 0 0 0 0 0 0 0 0 0 0 0 0 0 0 0 0 0 0 0 0 0 0 0 0 0 0 0 0
0 0 0 0 0 0 0 0 0 0 0 0 0 0 0 0 0 0 0 0 0 0 0 0 0 0 0 0 0 0 0 0 0 0 0 0 0 0 0 0 0 0 0
0 0 0 0 0 0 0 0 0 0 0 0 0 0 0 0 0 0 0 0 0 0 0 0 0 0 0 0 0 0 0 0 0 0 0 0 0 0 0 0 0 0 0
0 0 0 0 0 0 0 0 0 0 0 0 0 0 0 0 0 0 0 0 0 0 0 0 0 0 0 0 0 0 0 0 0 0 0 0 0 0 0 0 0 0 0
0 0 0 0 0 0 0 0 0 0 0 0 0 0 0 0 0 0 0 0 0 0 0 0 0 0 0 0 0 0 0 0 0 0 0 0 0 0 0 0 0 0 0
0 0 0 0 0 0 0 -0 0 0 0 0 0 0 0 0 0 0 0 0 0 0 0 0 0 0 0 0 0 0 0 0 0 0 0 0 0 0 0 0 0 0 0
0 0 -0 -0 -0 -0 -0 -0 -0 0 0 0 0 0 0 0 0 0 0 0 0 0 0 0 0 0 0 0 0 0 0 0 0 0 0 0 0 0 0 0 0 0 0
0 0 0 0 0 0 0 0 -0 0 0 0 0 0 0 0 0 0 0 0 0 0 0 0 0 0 0 0 0 0 0 0 0 0 0 0 0 0 0 0 0 0 0
0 0 0 0 0 0 0 0 0 0 0 0 0 0 0 0 0 0 0 0 0 0 0 0 0 0 0 0 0 0 0 0 0 0 0 0 0 0 0 0 0 0 0
0 0 0 0 0 0 0 0 0 0 0 0 0 0 0 0 0 0 0 0 0 0 0 0 0 0 0 0 0 0 0 0 0 0 0 0 0 0 0 0 0 0 0
0 0 0 0 0 0 0 0 0 0 0 0 0 0 0 0 0 0 0 0 0 0 0 0 0 0 0 0 0 0 0 0 0 0 0 0 0 0 0 0 0 0 0
0 0 0 0 0 0 0 0 0 0 0 0 0 0 0 0 0 0 0 0 0 0 0 0 0 0 0 0 0 0 0 0 0 0 0 0 0 0 0 0 0 0 0
0 0 0 0 0 0 0 0 0 0 0 0 0 0 0 0 0 0 0 0 0 0 0 0 0 0 0 0 0 0 0 0 0 0 0 0 0 0 0 0 0 0 0
0 0 0 0 0 0 0 0 0 0 0 0 0 0 0 0 0 0 0 0 0 0 0 0 0 0 0 0 0 0 0 0 0 0 0 0 0 0 0 0 0 0 0
0 0 0 0 0 0 0 0 0 0 0 0 0 0 0 0 0 0 0 0 0 0 0 0 0 0 0 0 0 0 0 0 0 0 0 0 0 0 0 0 0 0 0
0 0 0 0 0 0 0 0 0 0 0 0 0 0 0 0 0 0 0 0 0 0 0 0 0 0 0 0 0 0 0 0 0 0 0 0 0 0 0 0 0 0 0
0 0 0 0 0 0 0 0 0 0 0 0 0 0 0 0 0 0 0 0 0 0 0 0 0 0 0 0 0 0 0 0 0 0 0 0 0 0 0 0 0 0 0
0 0 0 0 0 0 0 0 0 0 0 0 0 0 0 0 0 0 0 0 0 0 0 0 0 0 0 0 0 0 0 0 0 0 0 0 0 0 0 0 0 0 0
0 0 0 0 0 0 0 0 0 0 0 0 0 0 0 0 0 0 0 0 0 0 0 0 0 0 0 0 0 0 0 0 0 0 0 0 0 0 0 0 0 0 0
0 0 0 0 0 0 0 0 0 0 0 0 0 0 0 0 0 0 0 0 0 0 0 0 0 0 0 0 0 0 0 0 0 0 0 0 0 0 0 0 0 0 0
0 0 0 0 0 0 0 0 0 0 0 0 0 0 0 0 0 0 0 0 0 0 0 0 0 0 0 0 0 0 0 0 0 0 0 0 0 0 0 0 0 0 0
0 0 0 0 0 0 0 0 0 0 0 0 0 0 0 0 0 0 0 0 0 0 0 0 0 0 0 0 0 0 0 0 0 0 0 0 0 0 0 0 0 0 0
0 0 0 0 0 0 0 0 0 0 0 0 0 0 0 0 0 0 0 0 0 0 0 0 0 0 0 0 0 0 0 0 0 0 0 0 0 0 0 0 0 0 0
0 0 0 0 0 0 0 0 0 0 0 0 0 0 0 0 0 0 0 0 0 0 0 0 0 0 0 0 0 0 0 0 0 0 0 0 0 0 0 0 0 0 0
0 0 0 0 0 0 0 0 0 0 0 0 0 0 0 0 0 0 0 0 0 0 0 0 0 0 0 0 0 0 0 0 0 0 0 0 0 0 0 0 0 0 0
Wind_Speed_500mb
29 26 26 28 34 38 45 46 50 56 60 65 67 71 74 74 73 74 76 80 83 83 82 86 94 96 93 101 108 109 111 103 101 97 91 87 74 71 69 64 72 84 85
33 32 33 34 36 42 50 51 58 65 66 67 69 73 76 78 77 77 74 76 78 79 76 76 76 83 90 87 100 99 102 98 98 99 98 89 83 72 62 58 66 75 72
30 32 32 34 37 42 49 56 63 69 71 70 69 70 71 74 77 78 76 76 76 76 74 74 71 72 83 82 92 94 98 101 94 90 93 83 75 66 61 59 57 57 51
31 36 39 40 42 48 54 60 65 68 71 70 69 71 73 74 76 78 77 75 76 73 73 73 69 69 73 75 83 83 81 84 84 83 84 79 72 66 62 54 50 45 47
44 47 53 57 58 58 58 58 61 63 65 67 70 71 71 74 75 76 75 73 74 73 70 69 71 70 72 72 71 74 74 73 74 72 73 73 73 63 51 47 42 40 52
56 58 59 61 64 67 69 68 67 67 65 65 66 68 69 69 66 65 67 70 70 69 71 69 69 70 72 72 71 70 65 63 66 65 69 69 63 51 42 44 45 54 60
58 58 61 64 67 68 71 72 72 72 75 75 73 69 68 65 64 64 64 67 66 66 67 67 66 66 69 66 61 62 57 51 51 49 48 55 51 42 43 41 49 57 58
62 67 71 75 77 77 79 80 77 75 73 77 80 74 71 64 63 63 59 63 65 67 62 62 63 60 59 57 55 53 48 40 38 32 30 30 28 29 29 34 36 41 42
69 71 73 77 82 84 85 89 93 87 76 70 71 72 69 62 58 53 53 55 54 56 57 58 57 54 52 53 47 40 33 25 21 21 26 31 24 19 21 27 31 25 29
71 75 76 78 82 85 84 84 85 86 83 74 69 66 64 58 51 46 49 48 52 52 52 50 49 44 39 31 27 24 25 28 30 31 25 19 17 19 11 6 12 21 30
70 74 77 78 81 81 84 82 78 75 73 71 69 65 59 52 44 41 39 43 44 42 41 36 29 21 14 14 10 12 16 26 31 32 17 15 6 5 11 18 22 26 32
70 73 76 80 80 78 77 76 74 70 68 66 64 59 51 42 36 35 34 34 33 28 21 15 12 15 17 14 14 16 19 25 32 25 17 6 9 14 17 21 27 32 36
70 72 74 76 76 73 68 65 68 66 63 61 57 52 45 38 30 20 17 15 13 12 13 16 21 24 29 25 24 27 19 18 21 14 10 15 18 20 23 29 31 31 33
71 72 73 73 71 65 62 60 58 58 57 53 47 42 38 27 21 17 10 13 17 22 27 32 33 32 28 23 19 21 21 17 12 15 19 21 22 25 29 28 28 30 33
73 72 70 66 63 59 59 59 56 50 43 34 28 28 25 21 25 17 15 18 20 24 27 33 34 28 25 22 23 24 17 13 18 23 24 24 28 29 29 31 32 34 36
72 73 68 61 57 53 49 42 30 20 15 12 11 14 16 21 26 20 21 22 22 21 25 26 25 22 19 17 17 18 17 17 20 24 26 28 29 29 29 29 29 31 35
70 67 65 57 52 44 33 24 20 16 19 15 12 13 16 20 21 21 23 24 21 18 17 20 17 13 10 9 12 15 18 20 21 25 28 28 28 28 30 33 34 35 38
69 66 61 52 44 36 31 30 29 29 28 29 25 21 19 21 20 21 22 22 18 12 11 7 5 5 8 8 10 12 13 16 20 23 26 27 29 31 32 33 34 35 35
70 67 54 45 40 36 38 38 35 32 30 25 21 18 20 20 22 22 20 15 14 10 7 6 4 3 6 10 13 15 17 19 22 25 27 29 30 31 31 31 32 33 35
66 59 48 42 43 45 45 43 41 37 28 19 20 21 22 23 23 20 17 15 13 10 7 5 7 9 12 15 18 21 23 24 26 28 30 32 32 32 32 33 34 34 35
60 53 47 46 50 54 52 47 44 34 26 27 26 28 26 20 21 19 16 14 11 10 9 9 11 15 18 21 23 25 26 28 29 29 31 32 33 34 33 32 33 32 32
54 50 49 51 53 57 52 45 43 36 31 29 28 27 27 24 21 19 15 12 9 9 11 15 19 21 23 25 26 28 28 28 29 30 31 32 32 32 32 32 32 31 30
47 46 47 51 53 56 53 48 42 36 34 32 33 30 25 22 19 14 11 10 13 16 18 21 23 25 26 26 26 26 27 27 28 27 28 29 31 33 32 31 29 28 28
39 40 43 50 53 56 53 45 42 40 37 37 31 28 24 19 17 14 15 17 18 20 23 24 26 27 26 25 25 25 25 25 26 27 29 31 31 31 30 30 28 29 30
33 36 45 52 55 53 46 45 42 39 38 34 30 25 22 19 18 20 21 21 23 25 25 25 24 23 22 22 23 24 25 26 28 29 30 30 31 31 29 29 29 32 35
28 34 41 44 47 44 43 41 39 38 34 31 26 23 22 22 24 25 26 27 26 23 21 20 19 20 21 22 24 25 27 28 29 29 30 32 32 32 31 30 32 34 35
Wind_Direction_500mb
345 333 320 305 297 294 300 302 308 304 300 292 285 281 277 273 269 265 264 264 264 267 270 269 269 267 269 272 272 273 269 267 266 264 268 267 265 265 263 258 241 241 236
325 316 315 307 297 291 297 295 298 298 295 291 285 280 278 278 277 274 272 269 269 271 271 272 271 267 265 270 274 272 273 274 269 273 269 266 265 264 260 247 245 243 241
321 321 318 309 299 292 288 287 287 290 292 291 287 282 279 279 278 279 276 274 273 273 272 272 272 268 265 264 272 271 276 273 271 266 264 262 260 252 243 245 236 233 226
326 328 323 317 308 303 300 296 291 289 289 289 289 288 283 279 277 277 274 271 271 272 272 273 272 272 271 270 273 274 276 274 273 266 262 258 255 248 242 238 234 223 221
330 330 326 323 320 318 312 307 304 300 294 290 289 287 284 279 277 275 273 272 273 273 269 268 269 267 270 271 274 274 273 273 272 268 257 251 249 244 234 237 212 209 221
323 323 321 319 319 322 321 318 314 310 307 303 300 295 288 283 278 273 270 269 269 270 270 269 267 267 270 270 271 272 273 272 271 264 256 251 247 241 232 205 203 211 221
324 324 324 321 320 319 318 318 316 310 306 303 300 296 292 285 278 272 267 266 267 269 271 273 270 266 266 268 270 271 271 265 261 262 262 255 244 231 212 203 211 222 236
321 320 320 319 319 320 319 318 316 313 308 301 297 294 289 283 276 271 266 266 267 269 271 270 269 267 264 266 268 267 266 264 262 258 245 238 213 195 205 218 234 240 245
312 311 310 310 310 311 312 312 314 313 311 305 297 291 287 282 277 272 267 268 270 271 270 270 268 267 266 266 262 258 253 238 217 204 190 174 179 214 230 224 227 233 247
308 305 304 302 299 299 299 300 304 307 307 305 299 293 287 283 278 273 270 272 270 271 270 266 266 263 263 258 245 232 218 208 194 189 162 173 195 184 200 222 279 274 265
315 314 311 306 303 301 298 298 297 299 299 298 294 292 287 283 277 271 272 269 265 263 262 262 260 260 218 188 195 204 207 192 185 166 160 165 172 310 309 298 290 287 278
309 311 311 308 304 301 300 300 300 300 298 295 292 288 282 280 271 264 260 260 261 259 256 245 212 163 147 131 126 143 161 161 164 179 195 245 299 308 290 282 291 286 277
307 307 305 303 302 300 298 298 298 298 296 293 287 285 278 269 253 237 232 246 226 192 170 148 139 137 137 130 134 139 141 137 156 199 266 291 289 282 284 297 293 277 272
306 304 304 303 302 300 297 298 295 292 288 283 278 273 264 247 207 192 182 142 128 132 135 135 129 137 141 142 143 145 152 187 232 280 302 299 293 293 296 292 284 281 277
305 303 303 303 300 298 298 298 294 288 280 270 268 261 251 219 179 162 143 135 129 129 135 139 139 141 149 158 164 174 191 248 278 285 287 286 291 293 290 286 283 277 270
306 302 301 301 297 295 293 289 279 272 261 254 242 217 202 175 159 157 133 127 124 124 125 123 131 153 178 196 209 228 242 255 264 271 277 286 291 290 287 285 282 277 269
299 299 295 293 294 290 274 250 214 165 139 119 116 137 147 150 155 150 131 119 115 112 110 118 126 136 158 203 235 247 258 263 270 279 282 284 284 284 287 288 284 277 273
292 292 290 290 286 269 235 216 214 191 175 161 153 153 158 161 156 162 166 152 147 142 137 136 158 190 237 267 284 288 287 291 294 292 290 290 286 286 285 283 279 276 276
287 287 284 278 270 248 225 218 221 210 193 181 174 175 173 170 182 181 178 166 155 165 160 152 202 262 288 289 289 296 298 299 296 296 295 292 291 289 285 281 278 278 281
283 281 272 260 252 234 222 220 214 205 191 190 188 186 185 180 179 177 159 156 159 169 194 221 254 269 283 299 305 309 310 308 305 301 296 293 290 289 286 284 281 280 280
281 274 258 248 244 229 219 213 207 196 202 194 184 175 160 160 169 166 169 177 190 207 233 264 290 302 306 306 307 307 307 305 302 302 302 298 294 291 290 288 287 286 285
276 267 252 246 237 222 213 206 193 194 191 194 186 183 181 179 188 189 194 205 227 259 287 296 297 300 304 305 306 306 305 304 302 300 295 292 294 293 292 292 291 288 285
271 260 247 239 226 211 205 196 192 189 188 189 192 192 190 193 204 211 224 251 274 285 293 297 298 302 303 304 305 303 300 299 298 298 296 297 296 294 294 293 289 286 280
264 247 236 220 209 205 198 195 188 189 191 194 195 195 201 210 227 246 268 278 285 291 295 297 300 302 302 300 299 299 300 304 303 302 301 298 293 290 290 289 288 282 276
250 234 221 212 207 197 194 192 191 190 192 196 201 207 221 236 258 270 277 286 290 292 294 297 295 293 295 298 299 301 305 303 299 295 291 289 289 288 285 283 282 278 276
233 220 209 202 196 192 189 188 188 191 196 205 214 230 247 260 267 274 283 286 287 288 286 284 289 294 296 298 300 301 298 292 287 286 287 287 286 285 284 281 276 274 274
Wind_Speed_850mb
29 26 26 28 34 38 45 46 50 56 60 65 67 71 74 74 73 74 76 80 83 83 82 86 94 96 93 101 108 109 111 103 101 97 91 87 74 71 69 64 72 84 85
33 32 33 34 36 42 50 51 58 65 66 67 69 73 76 78 77 77 74 76 78 79 76 76 76 83 90 87 100 99 102 98 98 99 98 89 83 72 62 58 66 75 72
30 32 32 34 37 42 49 56 63 69 71 70 69 70 71 74 77 78 76 76 76 76 74 74 71 72 83 82 92 94 98 101 94 90 93 83 75 66 61 59 57 57 51
31 36 39 40 42 48 54 60 65 68 71 70 69 71 73 74 76 78 77 75 76 73 73 73 69 69 73 75 83 83 81 84 84 83 84 79 72 66 62 54 50 45 47
44 47 53 57 58 58 58 58 61 63 65 67 70 71 71 74 75 76 75 73 74 73 70 69 71 70 72 72 71 74 74 73 74 72 73 73 73 63 51 47 42 40 52
56 58 59 61 64 67 69 68 67 67 65 65 66 68 69 69 66 65 67 70 70 69 71 69 69 70 72 72 71 70 65 63 66 65 69 69 63 51 42 44 45 54 60
58 58 61 64 67 68 71 72 72 72 75 75 73 69 68 65 64 64 64 67 66 66 67 67 66 66 69 66 61 62 57 51 51 49 48 55 51 42 43 41 49 57 58
62 67 71 75 77 77 79 80 77 75 73 77 80 74 71 64 63 63 59 63 65 67 62 62 63 60 59 57 55 53 48 40 38 32 30 30 28 29 29 34 36 41 42
69 71 73 77 82 84 85 89 93 87 76 70 71 72 69 62 58 53 53 55 54 56 57 58 57 54 52 53 47 40 33 25 21 21 26 31 24 19 21 27 31 25 29
71 75 76 78 82 85 84 84 85 86 83 74 69 66 64 58 51 46 49 48 52 52 52 50 49 44 39 31 27 24 25 28 30 31 25 19 17 19 11 6 12 21 30
70 74 77 78 81 81 84 82 78 75 73 71 69 65 59 52 44 41 39 43 44 42 41 36 29 21 14 14 10 12 16 26 31 32 17 15 6 5 11 18 22 26 32
70 73 76 80 80 78 77 76 74 70 68 66 64 59 51 42 36 35 34 34 33 28 21 15 12 15 17 14 14 16 19 25 32 25 17 6 9 14 17 21 27 32 36
70 72 74 76 76 73 68 65 68 66 63 61 57 52 45 38 30 20 17 15 13 12 13 16 21 24 29 25 24 27 19 18 21 14 10 15 18 20 23 29 31 31 33
71 72 73 73 71 65 62 60 58 58 57 53 47 42 38 27 21 17 10 13 17 22 27 32 33 32 28 23 19 21 21 17 12 15 19 21 22 25 29 28 28 30 33
73 72 70 66 63 59 59 59 56 50 43 34 28 28 25 21 25 17 15 18 20 24 27 33 34 28 25 22 23 24 17 13 18 23 24 24 28 29 29 31 32 34 36
72 73 68 61 57 53 49 42 30 20 15 12 11 14 16 21 26 20 21 22 22 21 25 26 25 22 19 17 17 18 17 17 20 24 26 28 29 29 29 29 29 31 35
70 67 65 57 52 44 33 24 20 16 19 15 12 13 16 20 21 21 23 24 21 18 17 20 17 13 10 9 12 15 18 20 21 25 28 28 28 28 30 33 34 35 38
69 66 61 52 44 36 31 30 29 29 28 29 25 21 19 21 20 21 22 22 18 12 11 7 5 5 8 8 10 12 13 16 20 23 26 27 29 31 32 33 34 35 35
70 67 54 45 40 36 38 38 35 32 30 25 21 18 20 20 22 22 20 15 14 10 7 6 4 3 6 10 13 15 17 19 22 25 27 29 30 31 31 31 32 33 35
66 59 48 42 43 45 45 43 41 37 28 19 20 21 22 23 23 20 17 15 13 10 7 5 7 9 12 15 18 21 23 24 26 28 30 32 32 32 32 33 34 34 35
60 53 47 46 50 54 52 47 44 34 26 27 26 28 26 20 21 19 16 14 11 10 9 9 11 15 18 21 23 25 26 28 29 29 31 32 33 34 33 32 33 32 32
54 50 49 51 53 57 52 45 43 36 31 29 28 27 27 24 21 19 15 12 9 9 11 15 19 21 23 25 26 28 28 28 29 30 31 32 32 32 32 32 32 31 30
47 46 47 51 53 56 53 48 42 36 34 32 33 30 25 22 19 14 11 10 13 16 18 21 23 25 26 26 26 26 27 27 28 27 28 29 31 33 32 31 29 28 28
39 40 43 50 53 56 53 45 42 40 37 37 31 28 24 19 17 14 15 17 18 20 23 24 26 27 26 25 25 25 25 25 26 27 29 31 31 31 30 30 28 29 30
33 36 45 52 55 53 46 45 42 39 38 34 30 25 22 19 18 20 21 21 23 25 25 25 24 23 22 22 23 24 25 26 28 29 30 30 31 31 29 29 29 32 35
28 34 41 44 47 44 43 41 39 38 34 31 26 23 22 22 24 25 26 27 26 23 21 20 19 20 21 22 24 25 27 28 29 29 30 32 32 32 31 30 32 34 35
Wind_Direction_850mb
345 333 320 305 297 294 300 302 308 304 300 292 285 281 277 273 269 265 264 264 264 267 270 269 269 267 269 272 272 273 269 267 266 264 268 267 265 265 263 258 241 241 236
325 316 315 307 297 291 297 295 298 298 295 291 285 280 278 278 277 274 272 269 269 271 271 272 271 267 265 270 274 272 273 274 269 273 269 266 265 264 260 247 245 243 241
321 321 318 309 299 292 288 287 287 290 292 291 287 282 279 279 278 279 276 274 273 273 272 272 272 268 265 264 272 271 276 273 271 266 264 262 260 252 243 245 236 233 226
326 328 323 317 308 303 300 296 291 289 289 289 289 288 283 279 277 277 274 271 271 272 272 273 272 272 271 270 273 274 276 274 273 266 262 258 255 248 242 238 234 223 221
330 330 326 323 320 318 312 307 304 300 294 290 289 287 284 279 277 275 273 272 273 273 269 268 269 267 270 271 274 274 273 273 272 268 257 251 249 244 234 237 212 209 221
323 323 321 319 319 322 321 318 314 310 307 303 300 295 288 283 278 273 270 269 269 270 270 269 267 267 270 270 271 272 273 272 271 264 256 251 247 241 232 205 203 211 221
324 324 324 321 320 319 318 318 316 310 306 303 300 296 292 285 278 272 267 266 267 269 271 273 270 266 266 268 270 271 271 265 261 262 262 255 244 231 212 203 211 222 236
321 320 320 319 319 320 319 318 316 313 308 301 297 294 289 283 276 271 266 266 267 269 271 270 269 267 264 266 268 267 266 264 262 258 245 238 213 195 205 218 234 240 245
312 311 310 310 310 311 312 312 314 313 311 305 297 291 287 282 277 272 267 268 270 271 270 270 268 267 266 266 262 258 253 238 217 204 190 174 179 214 230 224 227 233 247
308 305 304 302 299 299 299 300 304 307 307 305 299 293 287 283 278 273 270 272 270 271 270 266 266 263 263 258 245 232 218 208 194 189 162 173 195 184 200 222 279 274 265
315 314 311 306 303 301 298 298 297 299 299 298 294 292 287 283 277 271 272 269 265 263 262 262 260 260 218 188 195 204 207 192 185 166 160 165 172 310 309 298 290 287 278
309 311 311 308 304 301 300 300 300 300 298 295 292 288 282 280 271 264 260 260 261 259 256 245 212 163 147 131 126 143 161 161 164 179 195 245 299 308 290 282 291 286 277
307 307 305 303 302 300 298 298 298 298 296 293 287 285 278 269 253 237 232 246 226 192 170 148 139 137 137 130 134 139 141 137 156 199 266 291 289 282 284 297 293 277 272
306 304 304 303 302 300 297 298 295 292 288 283 278 273 264 247 207 192 182 142 128 132 135 135 129 137 141 142 143 145 152 187 232 280 302 299 293 293 296 292 284 281 277
305 303 303 303 300 298 298 298 294 288 280 270 268 261 251 219 179 162 143 135 129 129 135 139 139 141 149 158 164 174 191 248 278 285 287 286 291 293 290 286 283 277 270
306 302 301 301 297 295 293 289 279 272 261 254 242 217 202 175 159 157 133 127 124 124 125 123 131 153 178 196 209 228 242 255 264 271 277 286 291 290 287 285 282 277 269
299 299 295 293 294 290 274 250 214 165 139 119 116 137 147 150 155 150 131 119 115 112 110 118 126 136 158 203 235 247 258 263 270 279 282 284 284 284 287 288 284 277 273
292 292 290 290 286 269 235 216 214 191 175 161 153 153 158 161 156 162 166 152 147 142 137 136 158 190 237 267 284 288 287 291 294 292 290 290 286 286 285 283 279 276 276
287 287 284 278 270 248 225 218 221 210 193 181 174 175 173 170 182 181 178 166 155 165 160 152 202 262 288 289 289 296 298 299 296 296 295 292 291 289 285 281 278 278 281
283 281 272 260 252 234 222 220 214 205 191 190 188 186 185 180 179 177 159 156 159 169 194 221 254 269 283 299 305 309 310 308 305 301 296 293 290 289 286 284 281 280 280
281 274 258 248 244 229 219 213 207 196 202 194 184 175 160 160 169 166 169 177 190 207 233 264 290 302 306 306 307 307 307 305 302 302 302 298 294 291 290 288 287 286 285
276 267 252 246 237 222 213 206 193 194 191 194 186 183 181 179 188 189 194 205 227 259 287 296 297 300 304 305 306 306 305 304 302 300 295 292 294 293 292 292 291 288 285
271 260 247 239 226 211 205 196 192 189 188 189 192 192 190 193 204 211 224 251 274 285 293 297 298 302 303 304 305 303 300 299 298 298 296 297 296 294 294 293 289 286 280
264 247 236 220 209 205 198 195 188 189 191 194 195 195 201 210 227 246 268 278 285 291 295 297 300 302 302 300 299 299 300 304 303 302 301 298 293 290 290 289 288 282 276
250 234 221 212 207 197 194 192 191 190 192 196 201 207 221 236 258 270 277 286 290 292 294 297 295 293 295 298 299 301 305 303 299 295 291 289 289 288 285 283 282 278 276
233 220 209 202 196 192 189 188 188 191 196 205 214 230 247 260 267 274 283 286 287 288 286 284 289 294 296 298 300 301 298 292 287 286 287 287 286 285 284 281 276 274 274